Probability
23 29 39 45 58 77 87 90 87 90 94 87 77 81 81 74 71 65 71 74 71 68 77 65 74 65 68 68 58 68 65 55 68 45 45 52 45 45 48 52 45 39 42
35 42 48 58 55 87 87 90 90 90 90 94 90 90 81 71 71 68 87 71 81 77 68 68 74 74 90 77 77 77 61 45 52 48 42 42 48 65 26 52 58 45 52
52 52 55 58 58 74 87 81 90 90 90 90 84 81 84 77 77 81 81 81 90 81 77 81 74 77 71 71 84 81 71 61 55 48 52 42 35 23 26 39 45 58 58
48 55 58 61 65 74 81 87 90 90 90 90 81 81 84 84 81 84 87 84 90 84 84 84 84 77 81 90 71 55 65 77 68 68 71 55 48 39 16 26 29 39 61
45 52 58 68 61 71 77 87 90 90 90 90 90 90 87 90 84 87 84 87 90 84 84 84 87 90 84 87 87 81 84 71 65 65 58 52 58 42 42 32 39 42 42
48 55 52 68 77 74 81 84 90 94 94 90 87 94 90 90 90 90 90 90 87 87 84 84 87 84 84 81 84 77 74 74 74 77 55 48 48 45 48 39 45 58 42
52 58 58 61 74 84 81 84 90 90 90 90 90 94 94 94 94 94 90 90 87 87 84 77 87 84 81 77 74 81 81 77 84 77 65 58 45 48 52 48 39 45 32
48 65 61 65 71 84 84 81 87 87 90 94 90 94 94 90 94 90 87 84 84 84 87 81 74 65 68 68 71 71 77 77 84 65 74 68 58 48 48 45 45 35 35
39 48 68 68 71 71 77 77 77 84 84 87 90 94 90 87 87 87 87 81 84 81 77 77 77 71 65 68 77 77 77 74 81 71 65 68 58 58 61 48 52 42 35
39 45 58 71 71 71 77 77 81 84 84 87 90 84 87 87 84 84 84 84 81 77 74 74 68 71 71 68 71 71 74 71 68 68 61 61 52 55 48 48 48 48 42
39 52 58 68 71 71 77 84 81 81 81 87 90 84 84 81 81 81 81 81 81 81 71 77 74 77 74 68 74 65 71 65 65 58 58 58 58 52 52 48 48 45 39
48 48 61 68 74 74 77 81 84 84 84 84 84 90 90 84 81 81 81 84 81 77 74 74 71 74 74 68 71 68 68 71 65 52 52 52 52 55 55 52 45 48 48
52 55 65 71 74 77 81 77 77 81 81 87 87 87 84 81 81 81 77 81 77 74 74 71 71 68 68 68 68 65 65 58 61 58 61 55 52 55 55 58 48 45 45
52 61 68 74 74 77 77 77 77 77 74 81 81 87 81 81 81 77 81 84 81 77 74 74 71 68 65 61 61 61 61 55 55 58 58 55 58 58 55 52 52 48 48
48 55 58 65 71 68 68 68 74 77 77 81 77 77 74 74 77 81 84 84 84 74 77 77 74 68 65 61 65 65 52 55 55 55 55 58 52 52 48 45 48 48 48
48 58 55 55 55 65 65 68 65 68 68 71 71 68 68 74 81 77 74 77 77 74 74 71 65 61 45 32 16 45 48 52 55 55 52 55 48 39 26 23 26 29 45
48 48 52 55 52 55 58 65 61 61 65 65 68 68 61 65 65 61 61 71 68 68 65 65 58 55 39 16 10 13 42 52 55 52 55 39 32 39 42 23 0 3 0
45 48 48 42 45 48 52 55 55 58 65 65 61 55 55 55 48 52 55 58 61 58 58 61 52 48 42 10 6 6 19 35 48 48 52 52 48 39 42 39 35 35 35
42 48 48 42 45 52 52 48 52 52 52 52 52 48 48 45 45 45 52 52 55 65 58 58 55 52 45 10 0 0 23 35 45 45 45 45 45 29 23 35 42 42 39
39 39 48 48 48 45 42 42 42 48 48 48 42 42 42 45 45 48 52 48 52 52 45 45 48 48 42 19 0 0 26 35 42 42 42 19 23 19 13 35 42 39 39
42 42 42 42 39 35 35 42 45 42 42 42 35 35 32 29 29 42 42 39 39 39 39 39 39 35 32 23 3 0 32 32 39 45 39 32 16 10 0 6 35 35 29
39 32 29 32 29 29 32 32 32 26 29 29 32 29 26 23 26 29 32 35 39 35 35 35 39 35 29 26 13 0 0 16 45 45 29 16 6 0 0 0 10 6 3
29 26 26 29 26 26 23 26 26 23 26 26 29 26 26 23 23 23 23 19 29 19 23 29 29 23 29 26 10 0 0 0 13 32 19 13 3 0 0 0 0 0 6
26 23 19 19 16 19 23 23 19 23 19 19 23 19 19 19 23 23 23 19 16 19 19 19 23 23 29 29 19 10 6 0 3 13 6 0 0 0 3 3 0 0 6
23 16 19 16 16 16 19 13 13 16 19 23 19 16 16 16 16 19 10 16 10 13 10 16 23 26 26 19 13 13 6 6 6 13 16 16 13 6 13 13 13 10 10
16 16 13 13 13 13 10 10 10 13 19 13 10 13 13 13 13 10 0 0 0 0 0 0 10 10 10 3 0 0 0 0 0 3 16 16 16 13 16 13 13 13 6
Height
5904 5903 5901 5900 5898 5897 5895 5893 5892 5891 5890 5889 5888 5887 5887 5886 5886 5886 5886 5886 5886 5886 5886 5886 5886 5886 5887 5887 5887 5887 5888 5888 5888 5889 5889 5890 5890 5890 5891 5891 5891 5891 5891
5905 5903 5902 5900 5899 5898 5896 5894 5893 5892 5891 5890 5889 5888 5887 5887 5887 5887 5886 5886 5886 5886 5886 5885 5885 5886 5886 5885 5885 5886 5886 5886 5887 5887 5887 5888 5888 5888 5889 5889 5889 5889 5889
5905 5903 5902 5901 5899 5898 5897 5895 5894 5893 5892 5891 5890 5889 5888 5888 5887 5887 5887 5886 5886 5886 5885 5885 5885 5885 5885 5884 5884 5884 5885 5885 5885 5885 5886 5886 5886 5886 5887 5887 5887 5887 5887
5904 5903 5902 5900 5899 5898 5897 5895 5894 5893 5892 5891 5890 5889 5889 5888 5888 5887 5886 5886 5885 5885 5885 5885 5884 5884 5884 5883 5883 5883 5883 5883 5883 5883 5883 5883 5883 5884 5884 5884 5884 5884 5884
5902 5901 5900 5899 5898 5897 5896 5895 5894 5893 5891 5890 5890 5889 5889 5888 5887 5887 5886 5886 5885 5884 5884 5884 5883 5883 5883 5882 5882 5882 5881 5881 5881 5881 5881 5881 5881 5881 5881 5881 5881 5881 5881
5900 5899 5898 5898 5897 5896 5895 5894 5893 5892 5891 5890 5889 5888 5888 5888 5887 5886 5885 5885 5884 5884 5883 5882 5882 5882 5881 5881 5880 5880 5880 5879 5879 5879 5878 5878 5878 5878 5878 5878 5878 5877 5877
5896 5896 5896 5896 5895 5894 5893 5892 5891 5890 5889 5888 5888 5887 5887 5886 5885 5885 5884 5883 5883 5882 5882 5881 5880 5880 5879 5879 5879 5878 5878 5877 5877 5876 5876 5876 5875 5875 5875 5875 5874 5874 5874
5892 5892 5892 5892 5892 5891 5890 5890 5889 5888 5887 5887 5886 5885 5885 5884 5883 5883 5882 5882 5881 5881 5880 5879 5879 5878 5877 5877 5876 5875 5875 5874 5874 5874 5873 5873 5872 5872 5871 5871 5871 5870 5870
5888 5888 5888 5888 5888 5888 5888 5887 5886 5885 5885 5884 5883 5883 5882 5881 5881 5880 5880 5879 5879 5878 5878 5877 5876 5875 5875 5874 5873 5873 5872 5871 5871 5870 5870 5869 5869 5868 5868 5867 5867 5867 5866
5884 5884 5883 5884 5884 5884 5884 5883 5883 5881 5881 5881 5880 5879 5879 5878 5877 5877 5876 5876 5875 5874 5874 5874 5873 5873 5872 5871 5870 5870 5869 5868 5867 5867 5866 5866 5865 5864 5864 5863 5862 5862 5861
5879 5879 5879 5879 5879 5879 5879 5879 5879 5878 5877 5876 5876 5875 5875 5874 5873 5872 5872 5871 5871 5870 5870 5870 5870 5869 5868 5867 5867 5866 5865 5865 5864 5863 5863 5862 5861 5860 5860 5859 5858 5857 5856
5873 5873 5873 5874 5874 5874 5874 5874 5874 5873 5872 5871 5871 5870 5870 5870 5869 5868 5867 5866 5866 5866 5866 5866 5865 5864 5864 5863 5862 5861 5861 5860 5860 5859 5858 5857 5857 5856 5855 5854 5853 5852 5851
5867 5868 5868 5868 5868 5868 5868 5868 5868 5868 5866 5866 5865 5865 5864 5863 5862 5861 5860 5860 5861 5861 5861 5861 5860 5859 5859 5858 5857 5856 5856 5855 5854 5854 5853 5852 5851 5851 5850 5849 5848 5847 5846
5861 5862 5862 5862 5862 5862 5862 5862 5862 5861 5860 5859 5859 5858 5858 5857 5856 5855 5855 5855 5855 5855 5855 5855 5854 5853 5853 5852 5851 5851 5850 5849 5848 5848 5847 5846 5845 5845 5844 5843 5842 5841 5840
5854 5855 5856 5856 5855 5855 5855 5855 5854 5854 5854 5853 5853 5852 5852 5850 5850 5849 5849 5849 5849 5849 5848 5848 5847 5847 5846 5846 5845 5844 5843 5843 5842 5841 5840 5839 5839 5838 5837 5836 5836 5834 5833
5847 5848 5848 5848 5848 5848 5848 5848 5847 5847 5846 5846 5846 5846 5845 5844 5843 5842 5842 5841 5841 5841 5841 5840 5840 5839 5838 5838 5837 5836 5836 5835 5835 5834 5833 5832 5832 5831 5830 5829 5828 5827 5826
5838 5839 5840 5840 5840 5840 5840 5840 5840 5840 5839 5839 5838 5838 5837 5836 5835 5835 5834 5834 5834 5833 5833 5832 5831 5831 5830 5830 5829 5828 5828 5828 5827 5826 5825 5824 5824 5823 5822 5821 5821 5820 5819
5829 5830 5831 5831 5832 5832 5832 5832 5832 5831 5831 5830 5830 5830 5829 5827 5826 5826 5826 5826 5825 5825 5824 5823 5823 5822 5821 5821 5821 5820 5819 5819 5819 5818 5817 5816 5815 5815 5814 5813 5812 5812 5811
5820 5821 5822 5822 5823 5823 5823 5823 5823 5823 5822 5822 5822 5821 5820 5819 5818 5817 5817 5817 5816 5816 5815 5814 5813 5813 5812 5812 5811 5811 5810 5810 5810 5809 5808 5807 5806 5806 5805 5804 5803 5802 5801
5810 5811 5812 5813 5813 5813 5813 5814 5814 5813 5813 5812 5812 5811 5811 5810 5809 5808 5808 5807 5806 5805 5804 5803 5803 5802 5802 5802 5802 5801 5801 5801 5800 5799 5798 5798 5797 5796 5795 5794 5793 5792 5792
5799 5800 5802 5803 5803 5803 5804 5803 5803 5803 5803 5802 5801 5801 5800 5800 5799 5798 5797 5797 5796 5795 5793 5792 5791 5790 5790 5791 5791 5791 5791 5790 5790 5789 5789 5788 5787 5786 5785 5784 5783 5782 5781
5789 5790 5791 5792 5792 5793 5793 5793 5792 5792 5792 5791 5791 5790 5789 5788 5788 5787 5786 5785 5785 5784 5782 5780 5779 5779 5779 5779 5780 5780 5780 5779 5779 5779 5778 5777 5777 5776 5775 5774 5773 5772 5771
5778 5779 5780 5781 5781 5781 5781 5782 5781 5781 5780 5780 5779 5778 5777 5777 5777 5776 5775 5774 5773 5772 5771 5769 5769 5768 5768 5768 5768 5768 5768 5768 5768 5767 5767 5766 5765 5765 5764 5763 5762 5761 5760
5767 5768 5769 5769 5770 5770 5770 5770 5769 5769 5768 5768 5767 5767 5766 5765 5764 5764 5763 5763 5762 5761 5759 5758 5757 5757 5756 5757 5757 5756 5756 5756 5756 5756 5755 5755 5754 5753 5753 5752 5751 5750 5749
5756 5757 5757 5758 5758 5758 5758 5758 5757 5757 5756 5756 5755 5754 5754 5753 5753 5752 5751 5750 5750 5749 5748 5747 5746 5745 5745 5745 5745 5745 5745 5745 5744 5744 5744 5743 5742 5742 5741 5740 5739 5738 5737
5745 5745 5745 5746 5746 5746 5746 5746 5745 5745 5744 5744 5743 5742 5742 5741 5741 5740 5740 5738 5738 5737 5737 5736 5735 5735 5734 5734 5734 5733 5733 5733 5733 5732 5732 5731 5731 5730 5729 5728 5727 5727 5726
Wind_Speed
9 9 9 10 10 10 10 9 9 8 7 6 4 4 3 4 4 3 2 2 1 1 1 1 2 2 3 5 6 6 7 7 8 8 8 9 9 9 10 9 9 9 9
8 8 8 8 9 9 9 9 8 7 6 6 5 3 3 2 2 2 1 1 0 0 1 1 2 3 3 5 6 7 8 8 8 8 8 9 10 10 11 11 10 10 10
6 6 6 7 7 8 7 7 7 7 6 5 5 4 3 2 1 1 0 1 1 1 2 2 2 3 3 3 5 5 7 8 8 8 8 9 10 11 11 12 11 11 11
7 7 6 7 7 7 7 6 7 7 6 5 4 4 3 2 2 2 2 2 2 3 3 2 3 3 4 4 4 5 6 7 8 9 9 9 10 11 12 12 12 12 12
8 8 7 7 7 7 7 7 7 7 6 5 4 4 3 3 3 3 3 3 3 4 4 4 4 5 5 5 5 5 6 8 8 9 10 10 10 11 12 12 12 13 13
10 10 9 9 9 8 8 8 8 8 8 7 6 5 5 5 5 4 4 5 5 5 5 5 6 6 6 6 7 7 7 8 8 9 9 10 11 11 11 12 13 13 14
14 13 12 11 11 11 10 10 10 9 8 7 8 8 7 7 7 7 7 7 7 7 7 7 7 8 9 9 9 9 9 9 10 10 11 11 12 13 13 14 15 15 15
16 15 14 14 13 13 13 13 12 11 10 9 10 10 9 10 9 10 10 9 9 9 9 9 9 10 10 10 10 10 11 11 11 11 11 12 13 13 14 15 15 15 15
17 17 17 16 15 15 15 15 14 13 12 12 12 12 12 12 12 12 12 12 12 12 11 11 11 11 11 11 11 11 12 12 12 12 13 13 14 14 14 15 15 16 16
18 19 19 18 17 17 16 16 16 14 14 14 15 14 15 15 14 14 15 15 15 14 14 14 14 14 13 13 13 13 13 13 13 14 14 14 15 16 16 16 17 17 18
19 19 18 18 18 19 19 19 19 19 19 17 17 18 17 17 17 17 17 17 17 17 17 17 17 16 16 16 15 15 15 15 15 16 16 17 17 17 17 18 18 19 19
19 20 20 21 21 20 20 20 20 21 22 21 20 20 20 20 21 21 20 20 19 18 19 20 19 19 19 19 18 18 17 17 17 17 18 18 19 19 19 19 19 19 19
21 21 21 21 22 23 23 22 22 23 23 23 22 23 23 23 24 24 23 22 22 20 20 21 22 21 21 21 21 20 20 19 19 19 19 20 20 20 20 20 20 20 20
22 22 22 23 23 24 25 24 24 24 25 25 24 25 25 25 25 24 23 23 23 23 24 24 24 24 23 22 23 23 22 22 21 22 22 23 22 23 22 22 22 23 23
24 23 23 24 24 25 25 26 26 26 26 26 26 26 27 28 28 27 25 25 25 26 26 26 26 26 26 26 25 25 25 25 24 24 24 24 25 25 25 25 25 26 26
26 26 26 26 26 26 27 28 28 27 27 27 27 28 29 30 29 28 27 27 27 27 28 28 28 28 27 28 28 27 27 27 26 25 26 26 27 28 28 28 28 27 27
28 28 29 28 28 28 29 30 31 30 29 29 29 30 30 31 31 30 28 28 28 29 30 30 30 30 30 29 29 29 28 27 27 27 27 27 27 29 29 29 29 29 29
31 32 32 31 31 31 31 31 32 32 32 31 31 31 32 33 32 31 30 30 30 30 31 32 32 32 32 31 31 31 29 29 29 28 28 29 29 30 30 30 30 31 31
32 32 32 33 33 33 32 33 33 33 33 33 33 33 33 33 33 32 32 33 34 34 34 34 33 33 33 32 32 32 32 31 30 30 30 30 30 31 31 32 32 33 32
33 33 33 33 33 33 34 34 35 35 35 35 36 36 36 35 34 34 33 34 35 35 35 36 35 35 34 34 34 34 33 33 32 31 31 31 31 32 33 34 34 34 34
35 35 35 35 35 35 36 36 36 37 37 38 39 39 38 37 37 35 35 36 37 37 38 38 37 36 36 36 36 36 36 35 34 33 33 33 33 34 35 35 36 36 36
36 36 36 36 36 37 37 37 38 38 39 39 40 40 39 39 38 37 36 37 38 39 39 38 37 36 35 37 38 37 37 36 36 35 36 35 35 35 36 36 36 37 37
36 36 37 37 37 38 38 38 39 39 39 39 40 40 39 39 38 37 37 38 39 39 39 37 37 36 37 37 37 38 38 37 37 37 37 36 36 36 36 37 37 37 37
36 37 38 38 39 39 39 39 39 39 39 40 40 40 39 39 39 39 38 38 38 38 38 38 37 37 38 38 37 37 37 38 38 38 37 37 37 38 38 38 38 38 38
37 37 38 39 40 40 40 40 40 40 40 40 40 39 39 38 39 40 39 38 37 38 38 39 38 37 37 36 37 37 38 38 38 39 39 39 39 39 39 39 39 39 38
35 36 37 38 38 39 39 40 40 40 39 38 38 39 39 38 38 38 39 39 39 38 37 37 38 37 37 36 36 37 37 38 39 39 40 39 39 39 39 39 39 38 38
Wind_Direction
22 25 29 32 33 30 29 32 36 38 41 42 50 54 61 80 101 101 115 118 113 115 169 235 236 244 250 241 240 241 243 243 245 245 247 247 244 243 246 249 251 251 251
4 8 13 17 20 21 22 24 26 28 31 34 33 42 55 69 73 81 92 95 58 48 4 292 267 270 270 256 250 252 251 253 250 251 253 251 247 248 250 250 251 253 255
342 343 350 356 3 9 12 15 14 13 16 22 25 26 36 39 46 57 44 335 298 304 320 335 315 297 289 277 262 260 257 257 258 257 260 258 256 258 257 255 254 256 259
318 322 325 335 341 348 352 356 0 359 358 2 357 6 18 11 360 336 320 327 319 306 305 299 309 306 295 288 282 272 264 264 265 261 263 262 264 266 264 263 260 259 260
299 303 303 305 314 325 331 332 337 340 339 341 336 329 333 339 333 321 311 311 317 320 312 306 305 306 297 294 287 277 276 275 273 271 269 267 269 268 267 268 265 262 262
285 289 289 290 294 301 309 314 320 322 323 319 317 312 308 308 305 299 294 295 301 304 307 309 303 297 293 293 286 281 289 289 283 276 272 272 271 271 268 268 268 265 263
275 281 283 283 286 288 294 298 302 305 309 311 308 305 300 297 300 294 285 285 290 293 296 302 302 295 292 291 287 289 288 288 284 279 276 275 274 273 272 271 270 268 267
267 270 272 276 278 280 284 290 290 292 295 296 296 296 295 294 296 300 289 283 285 288 291 295 296 292 289 287 288 290 287 282 281 281 279 278 278 277 275 274 271 269 270
266 263 264 267 272 275 277 283 284 284 287 287 286 286 288 287 287 295 287 282 282 282 284 285 286 287 286 286 285 286 286 281 278 278 278 279 280 279 278 278 277 274 273
263 262 264 265 267 271 275 275 279 282 281 281 277 276 280 284 285 289 284 279 279 278 278 278 281 286 283 282 281 282 286 287 283 279 278 279 280 279 278 280 278 277 277
260 262 264 264 267 268 269 273 278 281 285 282 276 274 279 284 286 284 280 278 278 277 276 276 277 280 281 281 280 279 281 283 285 284 282 280 279 280 280 279 278 279 279
257 259 261 262 264 267 269 271 275 279 282 279 278 276 275 278 282 281 275 274 276 275 276 277 278 280 281 280 278 278 279 281 282 284 283 282 281 281 282 283 282 282 281
256 257 259 261 262 265 269 270 275 276 280 277 275 275 277 280 282 285 276 272 272 273 275 277 278 278 280 279 275 275 276 278 279 280 281 282 282 280 281 282 282 282 282
258 258 259 262 263 264 267 269 272 274 279 278 277 278 279 280 282 285 277 272 272 273 275 275 275 274 275 275 276 276 275 275 277 278 279 280 280 279 278 279 280 280 279
259 260 261 261 262 264 266 267 269 272 274 276 276 278 279 278 278 278 276 274 273 275 275 274 274 274 274 274 275 274 275 275 276 277 278 277 277 276 277 278 278 278 277
258 259 261 260 262 264 264 267 271 274 272 273 275 277 278 279 279 276 274 275 274 275 275 273 274 276 276 274 273 273 274 275 276 278 278 276 275 275 275 275 277 277 278
257 258 260 260 262 263 265 266 268 271 273 274 274 275 278 280 276 273 274 275 276 275 274 273 275 275 274 274 273 272 272 274 277 277 277 276 275 275 274 274 275 276 278
257 258 259 261 263 264 266 267 269 270 270 271 273 275 278 278 275 272 272 273 274 275 274 273 273 273 272 272 273 272 272 274 276 277 275 275 275 274 273 273 274 275 276
257 257 258 260 262 264 265 266 267 270 271 271 272 273 275 278 274 271 271 271 273 274 276 275 274 272 271 270 271 271 272 274 276 276 275 275 275 274 273 274 274 275 275
257 257 258 259 262 264 265 266 267 269 271 271 272 273 274 277 275 271 271 272 273 274 274 276 274 271 270 270 270 270 271 272 274 274 274 274 274 275 274 274 274 275 276
258 258 258 259 261 264 265 267 267 268 269 270 272 272 273 275 276 274 273 272 273 273 274 275 274 271 269 269 270 270 269 270 272 273 273 273 274 274 274 274 275 276 275
258 259 260 261 262 264 266 268 269 270 271 271 272 272 272 272 274 274 274 274 272 272 272 272 270 270 269 269 269 268 268 269 271 272 273 274 273 273 274 275 275 276 276
258 259 260 261 263 265 266 268 269 270 271 270 271 272 271 272 273 273 273 274 274 273 271 270 269 267 267 270 270 268 268 269 270 271 273 274 273 273 274 274 274 275 276
260 259 260 261 263 265 266 268 269 269 270 270 271 271 271 271 272 272 273 273 273 272 270 270 269 267 268 269 268 269 269 269 269 271 271 272 273 273 274 274 274 274 275
261 260 261 262 264 265 265 267 268 270 270 271 272 272 272 272 272 272 273 272 271 272 271 269 269 269 269 268 267 268 269 270 270 270 271 272 274 275 275 274 274 274 274
261 262 263 264 264 266 267 268 271 271 271 273 272 271 272 271 271 271 272 271 272 272 273 272 270 268 269 268 268 269 269 270 270 270 271 272 273 274 274 274 272 272 273